Overview Statistics Trail Chart Weather Telemetry Raw packets
 

This is the latest recevied weather packets stored in our database for station/object KD4EED. If no packets are shown the sender has not sent any weather packets the latest 10 day(s).

<< 87 88 89 90 91 92 93 >>
Time Temp. Humidity Pressure Rain* Wind** Luminosity Snow
1788034497 32.78° C 50% 1009.4 hPa - - 861 W/m² -
1788034193 33.33° C 49% 1009.5 hPa - - 357 W/m² -
1788033892 33.89° C 48% 1009.4 hPa - - 556 W/m² -
1788033591 33.89° C 48% 1009.3 hPa - - 696 W/m² -
1788033286 34.44° C 48% 1009.4 hPa - - 761 W/m² -
1788032982 33.89° C 48% 1009.3 hPa - - 823 W/m² -
1788032682 33.89° C 48% 1009.4 hPa - - 676 W/m² -
1788032382 33.89° C 50% 1009.2 hPa - - 576 W/m² -
1788032077 33.33° C 51% 1009.4 hPa - - 675 W/m² -
1788031772 33.89° C 50% 1009.4 hPa - - 208 W/m² -
1788031467 33.89° C 50% 1009.5 hPa - - 297 W/m² -
1788031161 33.89° C 50% 1009.4 hPa - - 303 W/m² -
1788030861 33.89° C 50% 1009.5 hPa - - 473 W/m² -
1788030555 33.89° C 51% 1009.5 hPa - - 316 W/m² -
1788030251 33.89° C 50% 1009.6 hPa - - 715 W/m² -
1788029950 33.33° C 52% 1009.6 hPa - - 465 W/m² -
1788029646 32.78° C 52% 1009.9 hPa - - 575 W/m² -
1788029341 32.78° C 54% 1009.8 hPa - - 571 W/m² -
1788029040 32.78° C 54% 1009.8 hPa - - 578 W/m² -
1788028734 32.78° C 54% 1010.1 hPa - - 577 W/m² -
1788028429 32.78° C 54% 1009.9 hPa - - 578 W/m² -
1788028125 32.22° C 56% 1010 hPa - - 580 W/m² -
1788027825 32.22° C 56% 1010 hPa - - 564 W/m² -
1788027525 32.22° C 56% 1010.1 hPa - - 523 W/m² -
1788027224 32.22° C 56% 1010 hPa - - 536 W/m² -

* Rain since midnight (hover to see other rain measurements)
** Current wind speed in m/s (hover to see current wind gust speed)